[[{"header":{"parameterUnit":"m.s-1","parameterCategory":1,"la1":30.2991,"la2":30.254,"lo1":-89.0895,"lo2":-89.0444,"dy":0.0017,"dx":0.0017,"nx":28,"ny":28,"refTime":"2025-05-24T21:00:00:Z","depth":0,"parameterNumber":2,"parameterNumberName":"U-component_of_WINDS"},"data":[0,0,0,0,0,0,0,0,0,0,0,0,0,0,0,0,0,0,0,0,0,0,0,0,0,0,0,0,0,0,0,0,0,0,0,0,0,0,0,0,0,0,0,0,0,0,0,0,0,0,0,0,0,0,0,0,0,0,1.2463,1.2464,0,1.2604,1.2606,1.2607,1.2651,1.2651,1.265,1.2649,1.2792,1.2797,1.2801,0,0,0,0,0,0,0,0,0,0,0,0,0,1.2229,1.2233,1.2463,1.2464,1.2466,1.2604,1.2606,1.2608,1.2651,1.2651,1.265,1.2649,1.2791,1.2796,1.2801,0,0,0,0,0,0,0,0,0,0,0,0,0,1.2346,1.2235,1.2462,1.2505,1.251,1.2603,1.2606,1.2608,1.2652,1.2651,1.265,1.2649,1.2789,1.2796,1.2802,1.2863,0,0,1.2822,1.2825,0,0,0,0,0,0,0,0,1.234,1.2355,1.2497,1.2502,1.2508,1.2609,1.2576,1.2694,1.2652,1.2598,1.2649,1.2648,1.2732,1.2743,1.2772,1.287,1.2876,1.2823,1.2827,1.283,1.2832,0,0,0,0,0,0,0,1.2332,1.2349,1.2518,1.2499,1.2505,1.2516,1.2532,1.2598,1.2669,1.2602,1.2606,1.2622,1.2735,1.2765,1.2776,1.2878,1.2823,1.2829,1.2833,1.2835,1.3034,1.3035,0,0,0,0,0,0,1.2317,1.2342,1.2514,1.2523,1.242,1.2521,1.2539,1.2578,1.2668,1.2681,1.2623,1.2624,1.2755,1.2768,1.2781,1.2859,1.283,1.2836,1.284,1.3033,1.3034,1.3036,0,0,0,0,0,0,1.2311,1.2331,1.2508,1.2434,1.2457,1.2526,1.257,1.2581,1.2611,1.2684,1.2696,1.2641,1.2754,1.2771,1.2843,1.2864,1.2839,1.2845,1.3031,1.3033,1.3035,1.3014,0,0,0,0,0,0,1.2304,1.2329,1.2353,1.2434,1.2461,1.2568,1.2571,1.2584,1.2623,1.2625,1.2704,1.2716,1.2755,1.2833,1.2849,1.2873,1.285,1.303,1.3032,1.3034,1.3013,1.3015,1.3017,0,0,0,0,0,1.2296,1.2341,1.2354,1.2375,1.2492,1.2569,1.2584,1.2628,1.2625,1.2649,1.2696,1.2714,1.2859,1.2839,1.2859,1.2884,1.3028,1.3031,1.3034,1.3012,1.3015,1.3017,0,0,0,0,0,0,1.2261,1.2353,1.2368,1.2441,1.2497,1.2576,1.2609,1.2629,1.2687,1.2687,1.2739,1.2756,1.2823,1.2861,1.2838,1.2949,1.2945,1.2951,1.2921,1.2924,1.2926,1.2915,1.2856,0,0,0,0,0,1.2262,1.2317,1.2394,1.2451,1.2478,1.2539,1.2574,1.2603,1.2663,1.2686,1.2738,1.2795,1.2854,1.2891,1.2949,1.3019,1.3037,1.3047,1.3048,1.3049,1.3054,1.3094,1.31,1.3045,1.3045,1.3045,0,0,1.2264,1.2321,1.2352,1.2445,1.2492,1.2548,1.2558,1.2617,1.2658,1.2695,1.2766,1.2806,1.2873,1.2944,1.2977,1.2977,1.3074,1.3053,1.3053,1.3058,1.3098,1.3103,1.3107,1.3047,1.3047,1.3046,0,0,1.2296,1.2345,1.2398,1.2445,1.2516,1.2556,1.2569,1.2646,1.2674,1.2746,1.2775,1.2825,1.2925,1.2971,1.3008,1.3059,1.3078,1.3076,1.3085,1.3124,1.3128,1.3132,1.315,1.3156,1.3081,1.3081,1.3081,0,1.2289,1.2375,1.2422,1.2479,1.2519,1.2556,1.261,1.2653,1.2739,1.2766,1.2765,1.2891,1.2939,1.3022,1.3034,1.3063,1.3079,1.3067,1.3124,1.3128,1.3133,1.315,1.3157,1.3081,1.3081,1.3081,1.3081,0,1.2363,1.2422,1.2456,1.2539,1.2583,1.2638,1.2693,1.2732,1.2758,1.2798,1.2871,1.2929,1.3,1.3022,1.3047,1.3108,1.3106,1.3114,1.311,1.3136,1.3154,1.3161,1.308,1.308,1.308,1.308,0,0,1.2376,1.2485,1.2497,1.2535,1.2617,1.2663,1.272,1.279,1.2822,1.2881,1.2929,1.3014,1.3021,1.3063,1.3094,1.3128,1.3164,1.3132,1.3134,1.3135,1.3235,1.3228,1.3235,1.3178,1.3179,1.318,1.3229,0,1.2418,1.2522,1.2566,1.2649,1.2704,1.2741,1.2791,1.2846,1.2885,1.2937,1.298,1.3039,1.3045,1.3071,1.3106,1.3152,1.3185,1.315,1.3223,1.3225,1.3204,1.3245,1.3238,1.3281,1.3236,1.3238,1.3239,0,1.2481,1.254,1.2629,1.2705,1.273,1.2773,1.2841,1.2891,1.2954,1.2981,1.3028,1.3057,1.3118,1.3111,1.3196,1.3171,1.3204,1.3231,1.3234,1.3242,1.3233,1.3253,1.3296,1.3302,1.325,1.3249,1.3248,0,1.2481,1.2583,1.265,1.2681,1.2772,1.2801,1.284,1.2903,1.2942,1.3002,1.3028,1.3093,1.3128,1.3178,1.3225,1.3216,1.3305,1.3302,1.3328,1.3326,1.3344,1.3342,1.3392,1.3366,1.3366,1.3366,1.3366,0,1.2523,1.2575,1.2651,1.2691,1.2752,1.2803,1.2861,1.2902,1.2958,1.3007,1.3043,1.3088,1.3147,1.32,1.3237,1.3301,1.3317,1.3339,1.3348,1.3336,1.3333,1.3357,1.3355,1.3368,1.3367,1.3367,1.3367,0,1.2532,1.2585,1.266,1.274,1.2761,1.2802,1.287,1.2911,1.2952,1.3014,1.3031,1.3096,1.316,1.3212,1.3295,1.332,1.3387,1.3397,1.3365,1.337,1.3393,1.339,1.346,1.3471,1.3438,1.3438,1.3438,0,1.2555,1.2597,1.2681,1.2717,1.2756,1.2813,1.2854,1.2906,1.2947,1.3023,1.3054,1.3121,1.3177,1.3278,1.3332,1.3396,1.3408,1.3428,1.3418,1.3404,1.3408,1.3405,1.3409,1.3429,1.3429,1.3429,1.3429,0,1.259,1.2614,1.2672,1.2739,1.2787,1.2842,1.2898,1.2925,1.2987,1.3031,1.3097,1.3141,1.3227,1.3293,1.3363,1.3402,1.3426,1.3432,1.3441,1.3429,1.3408,1.3419,1.3368,1.343,1.343,1.343,1.343,1.343,1.2607,1.2646,1.2711,1.2774,1.2822,1.2874,1.2916,1.2963,1.302,1.3094,1.3122,1.319,1.3253,1.335,1.339,1.3443,1.3445,1.3459,1.3462,1.3465,1.3463,1.34,1.3456,1.3456,1.3457,1.3457,1.3457,0,1.2643,1.2688,1.2745,1.2823,1.2872,1.2892,1.2955,1.2995,1.3054,1.3112,1.3167,1.3243,1.3307,1.3367,1.3434,1.3465,1.3478,1.3481,1.3479,1.3488,1.3457,1.3442,1.347,1.347,1.347,1.347,1.347,1.347,1.2668,1.2735,1.2767,1.2858,1.2902,1.2969,1.3004,1.3051,1.3097,1.3181,1.3235,1.3274,1.3332,1.3404,1.3464,1.348,1.3503,1.3503,1.3521,1.3492,1.349,1.3488,1.3474,1.3508,1.3508,1.3547,1.3548,1.3548]},{"header":{"parameterUnit":"m.s-1","parameterCategory":1,"la1":30.2991,"la2":30.254,"lo1":-89.0895,"lo2":-89.0444,"dy":0.0017,"dx":0.0017,"nx":28,"ny":28,"refTime":"2025-05-24T21:00:00:Z","depth":0,"parameterNumber":3,"parameterNumberName":"V-component_of_WINDS"},"data":[0,0,0,0,0,0,0,0,0,0,0,0,0,0,0,0,0,0,0,0,0,0,0,0,0,0,0,0,0,0,0,0,0,0,0,0,0,0,0,0,0,0,0,0,0,0,0,0,0,0,0,0,0,0,0,0,0,0,3.5498,3.5499,0,3.5514,3.5515,3.5515,3.5467,3.5466,3.5464,3.5463,3.5478,3.548,3.5482,0,0,0,0,0,0,0,0,0,0,0,0,0,3.5425,3.5427,3.5498,3.5499,3.5499,3.5514,3.5515,3.5515,3.5467,3.5465,3.5464,3.5462,3.5478,3.548,3.5482,0,0,0,0,0,0,0,0,0,0,0,0,0,3.5451,3.5427,3.5498,3.5477,3.5475,3.5514,3.5515,3.5515,3.5468,3.5465,3.5463,3.5461,3.5477,3.548,3.5482,3.5543,0,0,3.549,3.5492,0,0,0,0,0,0,0,0,3.5449,3.5454,3.548,3.5479,3.5477,3.5486,3.5495,3.5524,3.5468,3.5471,3.5463,3.546,3.5483,3.5485,3.5493,3.5543,3.5544,3.5491,3.5492,3.5493,3.5494,0,0,0,0,0,0,0,3.5448,3.5453,3.5505,3.548,3.5478,3.5466,3.5467,3.55,3.5489,3.547,3.5467,3.5469,3.5481,3.549,3.5493,3.5544,3.5491,3.5493,3.5495,3.5496,3.5645,3.5647,0,0,0,0,0,0,3.5449,3.5451,3.5504,3.5505,3.5457,3.5469,3.5471,3.5486,3.5488,3.5487,3.5471,3.5467,3.5487,3.549,3.5493,3.5564,3.5493,3.5496,3.5498,3.5642,3.5645,3.5648,0,0,0,0,0,0,3.5447,3.5454,3.5504,3.5477,3.5483,3.5473,3.549,3.5487,3.5496,3.5489,3.5487,3.5482,3.5485,3.5489,3.5531,3.5564,3.5497,3.55,3.564,3.5643,3.5647,3.5706,0,0,0,0,0,0,3.5446,3.5454,3.5477,3.5478,3.5484,3.5542,3.5492,3.5489,3.5501,3.5495,3.5499,3.5497,3.5484,3.5527,3.5533,3.5566,3.5502,3.5637,3.5641,3.5645,3.5701,3.5711,3.572,0,0,0,0,0,3.5443,3.5493,3.5479,3.5485,3.5513,3.5544,3.5547,3.5531,3.5503,3.5526,3.5522,3.5497,3.5559,3.5532,3.5538,3.5572,3.5635,3.564,3.5645,3.5697,3.5709,3.5719,0,0,0,0,0,0,3.5496,3.5493,3.5477,3.5529,3.5537,3.5535,3.5564,3.5544,3.556,3.5554,3.5533,3.5534,3.5579,3.558,3.5549,3.5631,3.5592,3.5599,3.5629,3.5641,3.565,3.5649,3.5504,0,0,0,0,0,3.5514,3.5539,3.5535,3.5581,3.5586,3.5574,3.5587,3.5573,3.5581,3.5584,3.5583,3.5591,3.5611,3.5626,3.5645,3.57,3.57,3.5727,3.5737,3.5744,3.5751,3.578,3.5792,3.5665,3.5665,3.5665,0,0,3.5551,3.5552,3.5569,3.5592,3.5596,3.5622,3.5578,3.5607,3.5626,3.5588,3.5627,3.5627,3.5634,3.5683,3.5704,3.5685,3.5785,3.5751,3.5757,3.5759,3.5786,3.5798,3.5809,3.5669,3.5668,3.5668,0,0,3.5631,3.5635,3.5674,3.5679,3.5687,3.5679,3.5688,3.569,3.5688,3.5727,3.5699,3.5721,3.5757,3.5764,3.5772,3.5854,3.5832,3.5861,3.591,3.5938,3.5948,3.5957,3.5986,3.5997,3.5867,3.5867,3.5867,0,3.5676,3.5715,3.5696,3.5728,3.5738,3.5705,3.5744,3.575,3.5763,3.5771,3.5749,3.5794,3.5797,3.5846,3.5866,3.5874,3.5884,3.5861,3.5948,3.5957,3.5965,3.5993,3.6004,3.5871,3.587,3.587,3.5869,0,3.577,3.5797,3.5827,3.5841,3.5855,3.589,3.5876,3.5892,3.5877,3.5871,3.5911,3.5913,3.5931,3.5942,3.5928,3.5989,3.5977,3.5952,3.5913,3.5981,3.6006,3.6017,3.5876,3.5874,3.5873,3.5872,0,0,3.5885,3.5888,3.5899,3.5905,3.591,3.5931,3.5964,3.5982,3.5996,3.6006,3.6034,3.6065,3.6042,3.6051,3.6037,3.6062,3.6127,3.6034,3.6034,3.6051,3.6195,3.6214,3.6227,3.6112,3.6114,3.6115,3.6195,0,3.5965,3.6022,3.6006,3.6063,3.6088,3.6056,3.6084,3.6091,3.6086,3.6106,3.61,3.6123,3.609,3.6096,3.6119,3.6114,3.6156,3.6108,3.6137,3.6138,3.6137,3.624,3.6261,3.6335,3.6204,3.6206,3.6207,0,3.6066,3.608,3.614,3.614,3.615,3.6176,3.6192,3.6211,3.6217,3.6212,3.6222,3.6202,3.6234,3.6195,3.6238,3.6207,3.6217,3.6216,3.6219,3.6221,3.6177,3.6246,3.6359,3.637,3.6223,3.6222,3.6221,0,3.6144,3.6178,3.6218,3.6224,3.6226,3.6245,3.6247,3.625,3.6262,3.6275,3.6283,3.6299,3.6309,3.6322,3.6307,3.628,3.6353,3.6312,3.635,3.635,3.6367,3.6366,3.6484,3.6373,3.6373,3.6373,3.6373,0,3.6235,3.6273,3.6253,3.6278,3.6319,3.6299,3.6341,3.6339,3.6342,3.6366,3.6339,3.6361,3.6341,3.6361,3.635,3.6388,3.6392,3.6388,3.6385,3.6391,3.6392,3.6398,3.6393,3.6376,3.6375,3.6375,3.6374,0,3.633,3.6318,3.636,3.6358,3.6359,3.6389,3.6387,3.641,3.6403,3.6433,3.6439,3.6427,3.645,3.6437,3.646,3.6452,3.6502,3.6491,3.65,3.6497,3.6535,3.6532,3.6661,3.6677,3.6556,3.6558,3.6559,0,3.6389,3.6418,3.6419,3.6433,3.6436,3.6459,3.6471,3.6452,3.6465,3.6474,3.6496,3.6516,3.6531,3.6569,3.6563,3.658,3.657,3.6614,3.6572,3.6577,3.6571,3.6569,3.6572,3.6622,3.6624,3.6625,3.6626,0,3.6495,3.6488,3.6506,3.6523,3.6538,3.655,3.6559,3.6572,3.6553,3.6569,3.6592,3.6604,3.6627,3.6648,3.6662,3.6664,3.6642,3.6639,3.6648,3.6655,3.6659,3.6658,3.6523,3.6636,3.6635,3.6634,3.6634,3.6633,3.6575,3.6598,3.6603,3.6624,3.6629,3.6638,3.6659,3.6655,3.6673,3.6691,3.6678,3.6706,3.671,3.6727,3.6731,3.6752,3.6734,3.6748,3.6752,3.6756,3.6761,3.6656,3.6754,3.6754,3.6754,3.6754,3.6753,0,3.668,3.6681,3.67,3.6715,3.6731,3.6709,3.6718,3.6733,3.6757,3.6763,3.6779,3.6805,3.6824,3.6819,3.6837,3.6854,3.6845,3.6859,3.6858,3.6859,3.6776,3.6766,3.6867,3.6867,3.6867,3.6867,3.6867,3.6867,3.6736,3.6775,3.6768,3.6809,3.6809,3.6836,3.6843,3.6851,3.6856,3.6886,3.6902,3.6899,3.69,3.6918,3.6934,3.6932,3.694,3.6959,3.6953,3.6876,3.6865,3.6854,3.6845,3.6961,3.6961,3.7035,3.7035,3.7036]}]]